[[{"header":{"parameterUnit":"m.s-1","parameterCategory":1,"la1":30.2991,"la2":30.254,"lo1":-89.0895,"lo2":-89.0444,"dy":0.0017,"dx":0.0017,"nx":28,"ny":28,"refTime":"2025-04-16T21:00:00:Z","depth":0,"parameterNumber":2,"parameterNumberName":"U-component_of_WINDS"},"data":[0,0,0,0,0,0,0,0,0,0,0,0,0,0,0,0,0,0,0,0,0,0,0,0,0,0,0,0,0,0,0,0,0,0,0,0,0,0,0,0,0,0,0,0,0,0,0,0,0,0,0,0,0,0,0,0,0,0,-2.6315,-2.6315,0,-2.6346,-2.6347,-2.6347,-2.6331,-2.633,-2.6329,-2.6328,-2.636,-2.6361,-2.6363,0,0,0,0,0,0,0,0,0,0,0,0,0,-2.6243,-2.6244,-2.6315,-2.6315,-2.6316,-2.6346,-2.6347,-2.6347,-2.6331,-2.633,-2.6329,-2.6328,-2.6359,-2.6361,-2.6363,0,0,0,0,0,0,0,0,0,0,0,0,0,-2.6274,-2.6244,-2.6315,-2.6311,-2.6311,-2.6346,-2.6347,-2.6347,-2.6331,-2.633,-2.6328,-2.6327,-2.6359,-2.6361,-2.6363,-2.6403,0,0,-2.6371,-2.6372,0,0,0,0,0,0,0,0,-2.6272,-2.6277,-2.6312,-2.6312,-2.6312,-2.6333,-2.6333,-2.6366,-2.6331,-2.6324,-2.6328,-2.6327,-2.6352,-2.6355,-2.6363,-2.6405,-2.6406,-2.6371,-2.6372,-2.6374,-2.6374,0,0,0,0,0,0,0,-2.627,-2.6275,-2.6327,-2.6312,-2.6312,-2.6309,-2.6312,-2.6339,-2.6344,-2.6324,-2.6323,-2.6327,-2.6352,-2.6361,-2.6364,-2.6407,-2.6371,-2.6373,-2.6375,-2.6376,-2.6483,-2.6484,0,0,0,0,0,0,-2.6268,-2.6273,-2.6326,-2.6328,-2.6288,-2.6311,-2.6314,-2.6328,-2.6344,-2.6345,-2.6328,-2.6326,-2.6358,-2.6361,-2.6365,-2.6413,-2.6374,-2.6376,-2.6377,-2.6482,-2.6483,-2.6485,0,0,0,0,0,0,-2.6266,-2.6273,-2.6325,-2.6301,-2.6307,-2.6313,-2.6329,-2.6329,-2.6338,-2.6347,-2.6348,-2.6336,-2.6357,-2.6362,-2.6394,-2.6414,-2.6377,-2.6379,-2.648,-2.6482,-2.6484,-2.6508,0,0,0,0,0,0,-2.6264,-2.6272,-2.6287,-2.6301,-2.6308,-2.6353,-2.633,-2.633,-2.6342,-2.634,-2.6355,-2.6356,-2.6356,-2.6391,-2.6396,-2.6416,-2.6381,-2.6478,-2.6481,-2.6483,-2.6506,-2.6511,-2.6516,0,0,0,0,0,-2.6262,-2.6293,-2.6288,-2.6295,-2.6327,-2.6354,-2.6359,-2.6358,-2.6344,-2.6359,-2.6365,-2.6356,-2.6411,-2.6394,-2.6401,-2.6421,-2.6477,-2.648,-2.6483,-2.6504,-2.651,-2.6515,0,0,0,0,0,0,-2.6281,-2.6294,-2.6289,-2.6326,-2.6339,-2.6352,-2.637,-2.6365,-2.6382,-2.6379,-2.6378,-2.6381,-2.6415,-2.6422,-2.6402,-2.6461,-2.6442,-2.6446,-2.6455,-2.6461,-2.6466,-2.6463,-2.6383,0,0,0,0,0,-2.6289,-2.631,-2.6321,-2.6352,-2.6359,-2.6364,-2.6376,-2.6374,-2.6388,-2.6393,-2.6402,-2.6415,-2.6436,-2.6449,-2.6468,-2.6507,-2.651,-2.6525,-2.653,-2.6534,-2.6538,-2.6559,-2.6565,-2.6495,-2.6495,-2.6495,0,0,-2.6307,-2.6317,-2.633,-2.6356,-2.6366,-2.6388,-2.6369,-2.6392,-2.6409,-2.6397,-2.6428,-2.6435,-2.645,-2.6486,-2.6502,-2.6493,-2.6558,-2.6538,-2.6541,-2.6542,-2.6563,-2.6569,-2.6575,-2.6497,-2.6497,-2.6496,0,0,-2.6349,-2.636,-2.6386,-2.6397,-2.6413,-2.6416,-2.6423,-2.6437,-2.6441,-2.6472,-2.6464,-2.6484,-2.6519,-2.653,-2.654,-2.6589,-2.6581,-2.6596,-2.662,-2.6641,-2.6647,-2.6652,-2.6669,-2.6675,-2.66,-2.66,-2.66,0,-2.6369,-2.6401,-2.6401,-2.6426,-2.6437,-2.6429,-2.6456,-2.6467,-2.6488,-2.6496,-2.6486,-2.653,-2.654,-2.6578,-2.6591,-2.66,-2.6607,-2.6593,-2.6646,-2.6651,-2.6655,-2.6672,-2.6678,-2.6601,-2.6601,-2.6601,-2.6601,0,-2.6425,-2.6447,-2.6467,-2.6488,-2.6503,-2.6529,-2.6532,-2.6547,-2.6545,-2.6549,-2.6581,-2.6593,-2.6615,-2.6624,-2.6622,-2.6663,-2.6656,-2.6646,-2.6626,-2.6664,-2.6679,-2.6685,-2.6604,-2.6603,-2.6602,-2.6602,0,0,-2.6478,-2.65,-2.6507,-2.6517,-2.6534,-2.6552,-2.6578,-2.6599,-2.6612,-2.6627,-2.6649,-2.668,-2.6671,-2.6683,-2.6682,-2.67,-2.6738,-2.6688,-2.6688,-2.6696,-2.6783,-2.679,-2.6797,-2.6734,-2.6735,-2.6736,-2.6782,0,-2.6522,-2.6567,-2.6568,-2.6609,-2.663,-2.6623,-2.6646,-2.6659,-2.6664,-2.6683,-2.669,-2.6711,-2.6698,-2.6705,-2.6723,-2.673,-2.6755,-2.6727,-2.6753,-2.6754,-2.6748,-2.6805,-2.6812,-2.6855,-2.6788,-2.6789,-2.6789,0,-2.6578,-2.6595,-2.6639,-2.6654,-2.6663,-2.6683,-2.6703,-2.6721,-2.6737,-2.674,-2.6754,-2.6751,-2.6778,-2.6758,-2.6795,-2.6776,-2.6787,-2.6792,-2.6794,-2.6795,-2.6773,-2.6807,-2.6868,-2.6874,-2.6799,-2.6798,-2.6797,0,-2.6612,-2.6647,-2.6677,-2.6686,-2.6704,-2.6719,-2.6727,-2.6741,-2.6754,-2.6772,-2.6781,-2.6802,-2.6813,-2.6829,-2.6832,-2.6818,-2.6869,-2.685,-2.6872,-2.6872,-2.6882,-2.6881,-2.6945,-2.6891,-2.6891,-2.6891,-2.6891,0,-2.666,-2.6686,-2.6693,-2.6711,-2.6741,-2.6743,-2.6772,-2.678,-2.6793,-2.6813,-2.6809,-2.6828,-2.6831,-2.6851,-2.6854,-2.6884,-2.6889,-2.6892,-2.6892,-2.6892,-2.6891,-2.6898,-2.6895,-2.6893,-2.6892,-2.6892,-2.6892,0,-2.6702,-2.6707,-2.674,-2.6755,-2.676,-2.6781,-2.6794,-2.6812,-2.6818,-2.6844,-2.685,-2.6858,-2.6882,-2.6887,-2.6915,-2.6916,-2.6952,-2.695,-2.6947,-2.6946,-2.6967,-2.6965,-2.7037,-2.7046,-2.6988,-2.6988,-2.6989,0,-2.6731,-2.6752,-2.6769,-2.6783,-2.6792,-2.6813,-2.6827,-2.6829,-2.6844,-2.6863,-2.6879,-2.6902,-2.692,-2.6959,-2.6967,-2.6989,-2.6986,-2.701,-2.6989,-2.6989,-2.6986,-2.6984,-2.6986,-2.7014,-2.7014,-2.7015,-2.7015,0,-2.6783,-2.6785,-2.6804,-2.6825,-2.6841,-2.6857,-2.6873,-2.6884,-2.6889,-2.6906,-2.693,-2.6944,-2.6973,-2.6996,-2.7017,-2.7026,-2.7022,-2.7022,-2.7028,-2.7027,-2.7024,-2.7025,-2.6956,-2.702,-2.7019,-2.7019,-2.7019,-2.7019,-2.6819,-2.6837,-2.6852,-2.6874,-2.6887,-2.6901,-2.6919,-2.6927,-2.6947,-2.697,-2.6971,-2.6997,-2.7013,-2.7042,-2.7053,-2.7073,-2.7066,-2.7075,-2.7077,-2.7079,-2.708,-2.7022,-2.7077,-2.7077,-2.7077,-2.7077,-2.7077,0,-2.687,-2.688,-2.69,-2.6922,-2.694,-2.6934,-2.6952,-2.6966,-2.6989,-2.7005,-2.7023,-2.7051,-2.7073,-2.7085,-2.7107,-2.7122,-2.712,-2.7127,-2.7126,-2.7128,-2.7086,-2.7078,-2.7128,-2.7128,-2.7128,-2.7128,-2.7128,-2.7128,-2.6899,-2.6928,-2.6932,-2.6968,-2.6978,-2.7003,-2.7014,-2.7028,-2.704,-2.7071,-2.709,-2.7097,-2.7111,-2.7134,-2.7155,-2.7158,-2.7166,-2.7174,-2.7175,-2.7136,-2.7131,-2.7126,-2.7118,-2.7176,-2.7176,-2.7215,-2.7216,-2.7216]},{"header":{"parameterUnit":"m.s-1","parameterCategory":1,"la1":30.2991,"la2":30.254,"lo1":-89.0895,"lo2":-89.0444,"dy":0.0017,"dx":0.0017,"nx":28,"ny":28,"refTime":"2025-04-16T21:00:00:Z","depth":0,"parameterNumber":3,"parameterNumberName":"V-component_of_WINDS"},"data":[0,0,0,0,0,0,0,0,0,0,0,0,0,0,0,0,0,0,0,0,0,0,0,0,0,0,0,0,0,0,0,0,0,0,0,0,0,0,0,0,0,0,0,0,0,0,0,0,0,0,0,0,0,0,0,0,0,0,5.441,5.441,0,5.442,5.442,5.442,5.4359,5.4357,5.4356,5.4354,5.4362,5.4364,5.4366,0,0,0,0,0,0,0,0,0,0,0,0,0,5.4335,5.4336,5.441,5.441,5.441,5.442,5.442,5.442,5.4359,5.4357,5.4355,5.4353,5.4362,5.4364,5.4366,0,0,0,0,0,0,0,0,0,0,0,0,0,5.4358,5.4337,5.441,5.4381,5.4378,5.442,5.442,5.442,5.436,5.4357,5.4355,5.4352,5.4361,5.4364,5.4366,5.4436,0,0,5.4375,5.4376,0,0,0,0,0,0,0,0,5.4357,5.4361,5.4385,5.4383,5.438,5.4386,5.4397,5.4426,5.436,5.4367,5.4354,5.4351,5.4372,5.4374,5.4381,5.4436,5.4437,5.4375,5.4377,5.4378,5.4379,0,0,0,0,0,0,0,5.4356,5.436,5.4414,5.4385,5.4382,5.4367,5.4367,5.4402,5.4384,5.4366,5.4362,5.4364,5.437,5.4379,5.4381,5.4437,5.4375,5.4378,5.4379,5.438,5.4549,5.4552,0,0,0,0,0,0,5.4358,5.436,5.4413,5.4414,5.4362,5.437,5.4371,5.4387,5.4383,5.438,5.4366,5.4361,5.4375,5.4378,5.4381,5.4462,5.4378,5.4381,5.4382,5.4547,5.455,5.4553,0,0,0,0,0,0,5.4357,5.4364,5.4413,5.4386,5.4391,5.4374,5.4392,5.4388,5.4397,5.4383,5.438,5.4378,5.4373,5.4377,5.4423,5.4462,5.4382,5.4384,5.4543,5.4548,5.4552,5.4625,0,0,0,0,0,0,5.4355,5.4363,5.439,5.4387,5.4392,5.4455,5.4395,5.439,5.4402,5.4395,5.4394,5.4391,5.4372,5.4419,5.4426,5.4464,5.4387,5.454,5.4545,5.455,5.4619,5.4631,5.4642,0,0,0,0,0,5.4352,5.4409,5.4392,5.4398,5.4425,5.4458,5.4461,5.4438,5.4405,5.4431,5.4423,5.4391,5.4457,5.4424,5.4431,5.4471,5.4537,5.4544,5.455,5.4614,5.4629,5.4641,0,0,0,0,0,0,5.4416,5.4408,5.4388,5.4446,5.4453,5.4447,5.4479,5.4454,5.447,5.4463,5.4433,5.4434,5.4484,5.4482,5.4446,5.4538,5.4491,5.4499,5.4537,5.4551,5.4563,5.4562,5.4389,0,0,0,0,0,5.4437,5.4465,5.4456,5.4508,5.4513,5.4496,5.4509,5.4491,5.4497,5.4499,5.4494,5.45,5.4522,5.4537,5.4556,5.4619,5.4617,5.465,5.4661,5.467,5.4677,5.471,5.4725,5.4574,5.4574,5.4574,0,0,5.448,5.448,5.4499,5.4521,5.4524,5.4553,5.4499,5.4531,5.4552,5.4503,5.4546,5.4543,5.4548,5.4603,5.4626,5.4602,5.4719,5.4678,5.4686,5.4688,5.4718,5.4733,5.4745,5.4578,5.4577,5.4577,0,0,5.4574,5.4576,5.462,5.4625,5.4631,5.4619,5.463,5.4628,5.4625,5.4668,5.4632,5.4656,5.4695,5.47,5.4707,5.4805,5.4776,5.4812,5.487,5.4903,5.4915,5.4925,5.496,5.4972,5.4819,5.4819,5.4819,0,5.4626,5.4669,5.4645,5.4681,5.4691,5.4651,5.4694,5.47,5.4712,5.472,5.4693,5.4741,5.4742,5.4797,5.4821,5.4829,5.4839,5.4811,5.4915,5.4926,5.4935,5.4967,5.498,5.4823,5.4823,5.4822,5.4822,0,5.4733,5.4763,5.4798,5.4812,5.4826,5.4866,5.4848,5.4865,5.4847,5.4838,5.4883,5.4882,5.4901,5.4913,5.4894,5.4966,5.4951,5.4921,5.4872,5.4954,5.4984,5.4996,5.483,5.4828,5.4827,5.4826,0,0,5.4865,5.4867,5.488,5.4886,5.4891,5.4913,5.4951,5.497,5.4986,5.4996,5.5026,5.5061,5.5033,5.5042,5.5024,5.5053,5.513,5.5018,5.5018,5.5039,5.5208,5.523,5.5245,5.5111,5.5113,5.5115,5.5208,0,5.4956,5.5021,5.5002,5.5067,5.5094,5.5057,5.509,5.5096,5.5089,5.5111,5.5103,5.5128,5.509,5.5095,5.5122,5.5114,5.5163,5.5108,5.5138,5.514,5.5137,5.5261,5.5284,5.5372,5.5219,5.5221,5.5222,0,5.507,5.5086,5.5155,5.5156,5.5166,5.5196,5.5213,5.5235,5.5241,5.5234,5.5245,5.5222,5.5258,5.5211,5.5261,5.5224,5.5235,5.5234,5.5237,5.5238,5.5185,5.5265,5.5399,5.5412,5.5241,5.5239,5.5238,0,5.5159,5.5198,5.5244,5.525,5.5253,5.5275,5.5277,5.528,5.5294,5.5308,5.5317,5.5335,5.5345,5.5359,5.5341,5.5309,5.5394,5.5345,5.5389,5.5389,5.5407,5.5406,5.5544,5.5416,5.5416,5.5416,5.5416,0,5.5262,5.5305,5.5284,5.5312,5.536,5.5337,5.5384,5.5382,5.5386,5.5413,5.5382,5.5407,5.5382,5.5405,5.5391,5.5435,5.5439,5.5434,5.543,5.5437,5.5437,5.5443,5.5436,5.5419,5.5418,5.5418,5.5417,0,5.5369,5.5357,5.5404,5.5403,5.5404,5.5439,5.5438,5.5464,5.5456,5.549,5.5497,5.5484,5.5509,5.5493,5.5519,5.551,5.5566,5.5554,5.5564,5.5561,5.5605,5.5601,5.5751,5.5769,5.563,5.5631,5.5633,0,5.5435,5.5468,5.5471,5.5487,5.5492,5.5518,5.5532,5.5511,5.5527,5.5538,5.5562,5.5586,5.5603,5.5646,5.5638,5.5658,5.5645,5.5697,5.5648,5.5654,5.5646,5.5644,5.5647,5.5706,5.5708,5.5709,5.571,0,5.5554,5.5546,5.5568,5.5589,5.5606,5.5621,5.5633,5.5648,5.5627,5.5646,5.5673,5.5687,5.5714,5.5737,5.5754,5.5755,5.573,5.5726,5.5737,5.5744,5.5748,5.5746,5.559,5.5722,5.5721,5.572,5.572,5.5719,5.5642,5.5669,5.5676,5.5702,5.5709,5.5721,5.5746,5.5741,5.5764,5.5785,5.5771,5.5803,5.5809,5.5829,5.5834,5.5858,5.5837,5.5853,5.5856,5.5861,5.5867,5.5746,5.5861,5.586,5.586,5.586,5.5859,0,5.5758,5.5762,5.5785,5.5804,5.5824,5.58,5.5812,5.583,5.5858,5.5867,5.5885,5.5916,5.5939,5.5934,5.5955,5.5975,5.5964,5.5981,5.5979,5.598,5.5884,5.5872,5.599,5.599,5.599,5.599,5.599,5.599,5.5821,5.5867,5.5861,5.5909,5.5912,5.5943,5.5952,5.5963,5.597,5.6006,5.6026,5.6023,5.6026,5.6047,5.6067,5.6065,5.6073,5.6095,5.6089,5.5999,5.5986,5.5974,5.5963,5.6097,5.6098,5.6182,5.6183,5.6183]}]]